TimePST,TemperatureF,Dew PointF,Humidity,Sea Level PressureIn,VisibilityMPH,Wind Direction,Wind SpeedMPH,Gust SpeedMPH,PrecipitationIn,Events,Conditions,WindDirDegrees,DateUTC
12:00 AM,37.4,33.8,87,29.79,10.0,SSW,6.9,21.9,N/A,,Mostly Cloudy,200,2012-03-01 08:00:00
12:37 AM,37.4,33.8,87,29.80,10.0,South,8.1,-,N/A,,Mostly Cloudy,190,2012-03-01 08:37:00
12:53 AM,37.0,33.1,86,29.81,10.0,South,4.6,-,N/A,,Mostly Cloudy,180,2012-03-01 08:53:00
1:53 AM,37.0,33.1,86,29.83,10.0,South,6.9,-,N/A,,Overcast,180,2012-03-01 09:53:00
2:53 AM,37.0,32.0,82,29.85,10.0,Variable,3.5,-,N/A,,Overcast,0,2012-03-01 10:53:00
3:53 AM,36.0,32.0,86,29.86,10.0,Calm,Calm,-,N/A,,Overcast,0,2012-03-01 11:53:00
4:53 AM,36.0,32.0,86,29.90,10.0,South,5.8,-,N/A,,Overcast,180,2012-03-01 12:53:00
5:00 AM,35.6,32.0,87,29.90,10.0,South,8.1,-,N/A,,Overcast,180,2012-03-01 13:00:00
5:53 AM,36.0,32.0,86,29.93,10.0,SW,4.6,-,N/A,,Overcast,220,2012-03-01 13:53:00
6:53 AM,36.0,30.9,82,29.96,10.0,South,5.8,-,N/A,,Mostly Cloudy,170,2012-03-01 14:53:00
7:53 AM,37.0,32.0,82,30.00,10.0,Calm,Calm,-,N/A,,Mostly Cloudy,0,2012-03-01 15:53:00
8:53 AM,37.0,33.1,86,30.04,10.0,SSE,6.9,-,N/A,,Mostly Cloudy,160,2012-03-01 16:53:00
9:53 AM,37.9,34.0,86,30.07,10.0,Variable,4.6,-,N/A,,Mostly Cloudy,0,2012-03-01 17:53:00
10:53 AM,39.0,34.0,82,30.11,10.0,SSW,5.8,-,N/A,,Overcast,200,2012-03-01 18:53:00
11:02 AM,39.2,33.8,81,30.11,10.0,Variable,3.5,-,N/A,,Mostly Cloudy,0,2012-03-01 19:02:00
11:53 AM,41.0,33.1,73,30.14,10.0,South,5.8,-,N/A,,Mostly Cloudy,170,2012-03-01 19:53:00
12:53 PM,43.0,34.0,71,30.15,10.0,SE,10.4,-,N/A,,Mostly Cloudy,140,2012-03-01 20:53:00
1:53 PM,42.1,33.1,70,30.17,10.0,SW,8.1,-,N/A,,Mostly Cloudy,230,2012-03-01 21:53:00
2:53 PM,44.1,33.1,65,30.19,10.0,SSE,9.2,-,N/A,,Mostly Cloudy,160,2012-03-01 22:53:00
3:53 PM,43.0,32.0,65,30.22,10.0,South,8.1,-,N/A,,Overcast,170,2012-03-01 23:53:00
4:53 PM,43.0,34.0,71,30.23,10.0,Variable,4.6,-,N/A,,Overcast,0,2012-03-02 00:53:00
5:53 PM,43.0,34.0,71,30.24,10.0,SSE,6.9,-,N/A,,Scattered Clouds,150,2012-03-02 01:53:00
6:53 PM,43.0,34.0,71,30.26,10.0,Variable,5.8,-,N/A,,Overcast,0,2012-03-02 02:53:00
7:53 PM,43.0,33.1,68,30.28,10.0,ESE,4.6,-,N/A,,Overcast,110,2012-03-02 03:53:00
8:53 PM,41.0,34.0,76,30.30,10.0,ESE,4.6,-,N/A,,Overcast,120,2012-03-02 04:53:00
9:53 PM,42.1,36.0,79,30.33,10.0,South,3.5,-,N/A,,Overcast,190,2012-03-02 05:53:00
10:53 PM,41.0,36.0,82,30.33,10.0,SW,4.6,-,N/A,,Overcast,220,2012-03-02 06:53:00
11:53 PM,41.0,36.0,82,30.35,10.0,South,5.8,-,N/A,,Overcast,170,2012-03-02 07:53:00